contact:dominique.lefevre@mio.osupytheas.fr, maurice.libes@osupytheas.fr, didier.mallarino@osupytheas.fr
Project:EMSO http://www.emso-fr.org/EMSO-France
Depth: 2436.0 m
Title:EMSO Ligure Ouest : Data MII capteur MICROCAT
DateTime_Computer,Latitude,Longitude,Temperature,Conductivity,Pressure,DateTime_Instrument
DateTime_Computer,Latitude,Longitude,degC,S m-1,dbar,DateTime_Instrument
2019-11-17T00:01:11Z,42.805,6.029,13.2959,4.60024,2470.007,2019-11-17T02:01:39Z
2019-11-17T00:04:15Z,42.805,6.029,13.2962,4.60004,2469.993,2019-11-17T02:04:43Z
2019-11-17T00:07:18Z,42.805,6.029,13.2963,4.59998,2470.007,2019-11-17T02:07:46Z
2019-11-17T00:10:21Z,42.805,6.029,13.2962,4.59999,2469.947,2019-11-17T02:10:49Z
2019-11-17T00:13:25Z,42.805,6.029,13.2958,4.60035,2469.993,2019-11-17T02:13:52Z
2019-11-17T00:16:28Z,42.805,6.029,13.2967,4.60046,2469.947,2019-11-17T02:16:56Z
2019-11-17T00:19:31Z,42.805,6.029,13.2964,4.60023,2469.97,2019-11-17T02:19:59Z
2019-11-17T00:22:34Z,42.805,6.029,13.2964,4.60028,2469.947,2019-11-17T02:23:02Z
2019-11-17T00:25:37Z,42.805,6.029,13.2964,4.59997,2469.984,2019-11-17T02:26:05Z
2019-11-17T00:28:41Z,42.805,6.029,13.2964,4.59981,2469.947,2019-11-17T02:29:09Z
2019-11-17T00:31:44Z,42.805,6.029,13.2962,4.59986,2469.984,2019-11-17T02:32:12Z
2019-11-17T00:34:47Z,42.805,6.029,13.2958,4.59996,2469.947,2019-11-17T02:35:15Z
2019-11-17T00:37:50Z,42.805,6.029,13.2990,4.59986,2469.97,2019-11-17T02:38:18Z
2019-11-17T00:40:54Z,42.805,6.029,13.2985,4.59972,2469.96,2019-11-17T02:41:21Z
2019-11-17T00:43:57Z,42.805,6.029,13.3003,4.59986,2469.96,2019-11-17T02:44:25Z
2019-11-17T00:47:00Z,42.805,6.029,13.2961,4.60076,2469.97,2019-11-17T02:47:28Z
2019-11-17T00:50:03Z,42.805,6.029,13.2960,4.60081,2469.96,2019-11-17T02:50:31Z
2019-11-17T00:53:07Z,42.805,6.029,13.2963,4.60074,2469.947,2019-11-17T02:53:35Z
2019-11-17T00:56:10Z,42.805,6.029,13.2960,4.60078,2469.947,2019-11-17T02:56:38Z
2019-11-17T00:59:13Z,42.805,6.029,13.2960,4.60084,2469.923,2019-11-17T02:59:41Z
2019-11-17T01:02:16Z,42.805,6.029,13.2959,4.60089,2469.947,2019-11-17T03:02:44Z
2019-11-17T01:05:20Z,42.805,6.029,13.2958,4.60079,2469.947,2019-11-17T03:05:48Z
2019-11-17T01:08:23Z,42.805,6.029,13.2961,4.60073,2469.96,2019-11-17T03:08:51Z
2019-11-17T01:11:26Z,42.805,6.029,13.2990,4.60040,2469.947,2019-11-17T03:11:54Z
2019-11-17T01:14:29Z,42.805,6.029,13.3028,4.60039,2469.923,2019-11-17T03:14:57Z
2019-11-17T01:17:33Z,42.805,6.029,13.2996,4.60001,2469.937,2019-11-17T03:18:01Z
2019-11-17T01:20:36Z,42.805,6.029,13.2979,4.60012,2469.984,2019-11-17T03:21:04Z
2019-11-17T01:23:39Z,42.805,6.029,13.3001,4.60031,2469.914,2019-11-17T03:24:07Z
2019-11-17T01:26:42Z,42.805,6.029,13.2979,4.60049,2469.923,2019-11-17T03:27:10Z
2019-11-17T01:29:46Z,42.805,6.029,13.3046,4.60029,2469.914,2019-11-17T03:30:14Z
2019-11-17T01:32:49Z,42.805,6.029,13.2964,4.60042,2469.914,2019-11-17T03:33:17Z
2019-11-17T01:35:52Z,42.805,6.029,13.2963,4.60049,2469.923,2019-11-17T03:36:20Z
2019-11-17T01:38:55Z,42.805,6.029,13.3063,4.60049,2469.937,2019-11-17T03:39:23Z
2019-11-17T01:41:59Z,42.805,6.029,13.3043,4.60031,2469.96,2019-11-17T03:42:27Z
2019-11-17T01:45:02Z,42.805,6.029,13.3036,4.60043,2469.937,2019-11-17T03:45:30Z
2019-11-17T01:48:05Z,42.805,6.029,13.3031,4.60026,2469.97,2019-11-17T03:48:33Z
2019-11-17T01:51:08Z,42.805,6.029,13.3036,4.60033,2469.947,2019-11-17T03:51:36Z
2019-11-17T01:54:12Z,42.805,6.029,13.3033,4.60024,2469.937,2019-11-17T03:54:39Z
2019-11-17T01:57:15Z,42.805,6.029,13.3035,4.60040,2469.914,2019-11-17T03:57:43Z
2019-11-17T02:00:18Z,42.805,6.029,13.3043,4.60049,2469.923,2019-11-17T04:00:46Z
2019-11-17T02:03:21Z,42.805,6.029,13.3032,4.60055,2469.923,2019-11-17T04:03:49Z
2019-11-17T02:06:25Z,42.805,6.029,13.3041,4.60044,2469.937,2019-11-17T04:06:52Z
2019-11-17T02:09:28Z,42.805,6.029,13.3048,4.60015,2469.96,2019-11-17T04:09:56Z
2019-11-17T02:12:31Z,42.805,6.029,13.3052,4.60000,2469.9,2019-11-17T04:12:59Z
2019-11-17T02:15:34Z,42.805,6.029,13.3040,4.60005,2469.914,2019-11-17T04:16:02Z
2019-11-17T02:18:37Z,42.805,6.029,13.3054,4.60030,2469.914,2019-11-17T04:19:05Z
2019-11-17T02:21:41Z,42.805,6.029,13.3043,4.60024,2469.937,2019-11-17T04:22:09Z
2019-11-17T02:24:44Z,42.805,6.029,13.3043,4.60019,2469.937,2019-11-17T04:25:12Z
2019-11-17T02:27:47Z,42.805,6.029,13.3039,4.60000,2469.914,2019-11-17T04:28:15Z
2019-11-17T02:30:50Z,42.805,6.029,13.3029,4.59999,2469.96,2019-11-17T04:31:18Z
2019-11-17T02:33:54Z,42.805,6.029,13.3049,4.59994,2469.9,2019-11-17T04:34:22Z
2019-11-17T02:36:57Z,42.805,6.029,13.3043,4.59996,2469.914,2019-11-17T04:37:25Z
2019-11-17T02:40:00Z,42.805,6.029,13.3049,4.59981,2469.914,2019-11-17T04:40:28Z
2019-11-17T02:43:03Z,42.805,6.029,13.3054,4.60009,2469.937,2019-11-17T04:43:31Z
2019-11-17T02:46:07Z,42.805,6.029,13.3031,4.59998,2469.937,2019-11-17T04:46:34Z
2019-11-17T02:49:10Z,42.805,6.029,13.3038,4.59997,2469.9,2019-11-17T04:49:38Z
2019-11-17T02:52:13Z,42.805,6.029,13.3030,4.60005,2469.914,2019-11-17T04:52:41Z
2019-11-17T02:55:16Z,42.805,6.029,13.3029,4.60003,2469.9,2019-11-17T04:55:44Z
2019-11-17T02:58:20Z,42.805,6.029,13.3029,4.60017,2469.9,2019-11-17T04:58:48Z
2019-11-17T03:01:23Z,42.805,6.029,13.2986,4.59984,2469.923,2019-11-17T05:01:51Z
2019-11-17T03:04:26Z,42.805,6.029,13.3015,4.60009,2469.914,2019-11-17T05:04:54Z
2019-11-17T03:07:30Z,42.805,6.029,13.3004,4.59998,2469.914,2019-11-17T05:07:57Z
2019-11-17T03:10:33Z,42.805,6.029,13.3031,4.60008,2469.914,2019-11-17T05:11:01Z
2019-11-17T03:13:36Z,42.805,6.029,13.3041,4.59991,2469.89,2019-11-17T05:14:04Z
2019-11-17T03:16:39Z,42.805,6.029,13.3048,4.59991,2469.9,2019-11-17T05:17:07Z
2019-11-17T03:19:42Z,42.805,6.029,13.3030,4.59994,2469.876,2019-11-17T05:20:10Z
2019-11-17T03:22:46Z,42.805,6.029,13.3061,4.59991,2469.89,2019-11-17T05:23:13Z
2019-11-17T03:25:49Z,42.805,6.029,13.3043,4.59980,2469.89,2019-11-17T05:26:17Z
2019-11-17T03:28:52Z,42.805,6.029,13.3029,4.59991,2469.9,2019-11-17T05:29:20Z
2019-11-17T03:31:55Z,42.805,6.029,13.3029,4.60029,2469.914,2019-11-17T05:32:23Z
2019-11-17T03:34:58Z,42.805,6.029,13.3042,4.59986,2469.867,2019-11-17T05:35:26Z
2019-11-17T03:38:02Z,42.805,6.029,13.3021,4.59984,2469.914,2019-11-17T05:38:30Z
2019-11-17T03:41:05Z,42.805,6.029,13.3046,4.59995,2469.876,2019-11-17T05:41:33Z
2019-11-17T03:44:08Z,42.805,6.029,13.3043,4.59997,2469.881,2019-11-17T05:44:36Z
2019-11-17T03:47:11Z,42.805,6.029,13.3036,4.59996,2469.89,2019-11-17T05:47:39Z
2019-11-17T03:50:15Z,42.805,6.029,13.3034,4.59988,2469.867,2019-11-17T05:50:43Z
2019-11-17T03:53:18Z,42.805,6.029,13.3030,4.59996,2469.914,2019-11-17T05:53:46Z
2019-11-17T03:56:21Z,42.805,6.029,13.3031,4.59999,2469.89,2019-11-17T05:56:49Z
2019-11-17T03:59:25Z,42.805,6.029,13.3028,4.59990,2469.876,2019-11-17T05:59:53Z
2019-11-17T04:02:28Z,42.805,6.029,13.3035,4.60002,2469.844,2019-11-17T06:02:56Z
2019-11-17T04:05:31Z,42.805,6.029,13.3039,4.59993,2469.937,2019-11-17T06:05:59Z
2019-11-17T04:08:34Z,42.805,6.029,13.3039,4.59988,2469.853,2019-11-17T06:09:02Z
2019-11-17T04:11:38Z,42.805,6.029,13.3044,4.60004,2469.89,2019-11-17T06:12:06Z
2019-11-17T04:14:41Z,42.805,6.029,13.3041,4.60006,2469.89,2019-11-17T06:15:09Z
2019-11-17T04:17:44Z,42.805,6.029,13.3036,4.60005,2469.867,2019-11-17T06:18:12Z
2019-11-17T04:20:47Z,42.805,6.029,13.3037,4.59985,2469.876,2019-11-17T06:21:15Z
2019-11-17T04:23:51Z,42.805,6.029,13.3020,4.59987,2469.867,2019-11-17T06:24:19Z
2019-11-17T04:26:54Z,42.805,6.029,13.3034,4.60003,2469.853,2019-11-17T06:27:22Z
2019-11-17T04:29:57Z,42.805,6.029,13.3003,4.60001,2469.867,2019-11-17T06:30:25Z
2019-11-17T04:33:00Z,42.805,6.029,13.2994,4.60004,2469.867,2019-11-17T06:33:28Z
2019-11-17T04:36:04Z,42.805,6.029,13.3049,4.59998,2469.927,2019-11-17T06:36:31Z
2019-11-17T04:39:07Z,42.805,6.029,13.3034,4.59983,2469.89,2019-11-17T06:39:35Z
2019-11-17T04:42:10Z,42.805,6.029,13.3014,4.59993,2469.89,2019-11-17T06:42:38Z
2019-11-17T04:45:13Z,42.805,6.029,13.3000,4.60026,2469.853,2019-11-17T06:45:41Z
2019-11-17T04:48:17Z,42.805,6.029,13.3023,4.59995,2469.867,2019-11-17T06:48:45Z
2019-11-17T04:51:20Z,42.805,6.029,13.3023,4.60003,2469.876,2019-11-17T06:51:48Z
2019-11-17T04:54:23Z,42.805,6.029,13.3040,4.59996,2469.89,2019-11-17T06:54:51Z
2019-11-17T04:57:27Z,42.805,6.029,13.3024,4.60016,2469.89,2019-11-17T06:57:54Z
2019-11-17T05:00:30Z,42.805,6.029,13.3021,4.59999,2469.914,2019-11-17T07:00:58Z
2019-11-17T05:03:33Z,42.805,6.029,13.3024,4.60011,2469.89,2019-11-17T07:04:01Z
2019-11-17T05:06:36Z,42.805,6.029,13.3040,4.60027,2469.89,2019-11-17T07:07:04Z
2019-11-17T05:09:40Z,42.805,6.029,13.3033,4.59999,2469.89,2019-11-17T07:10:07Z
2019-11-17T05:12:43Z,42.805,6.029,13.3047,4.59992,2469.867,2019-11-17T07:13:11Z
2019-11-17T05:15:46Z,42.805,6.029,13.3015,4.60013,2469.89,2019-11-17T07:16:14Z
2019-11-17T05:18:49Z,42.805,6.029,13.3026,4.60000,2469.89,2019-11-17T07:19:17Z
2019-11-17T05:21:53Z,42.805,6.029,13.3050,4.59996,2469.89,2019-11-17T07:22:21Z
2019-11-17T05:24:56Z,42.805,6.029,13.3038,4.60009,2469.89,2019-11-17T07:25:24Z
2019-11-17T05:27:59Z,42.805,6.029,13.3016,4.59996,2469.853,2019-11-17T07:28:27Z
2019-11-17T05:31:02Z,42.805,6.029,13.3026,4.60010,2469.914,2019-11-17T07:31:30Z
2019-11-17T05:34:06Z,42.805,6.029,13.3024,4.59999,2469.876,2019-11-17T07:34:34Z
2019-11-17T05:37:09Z,42.805,6.029,13.3021,4.60006,2469.914,2019-11-17T07:37:37Z
2019-11-17T05:40:12Z,42.805,6.029,13.3020,4.60006,2469.89,2019-11-17T07:40:40Z
2019-11-17T05:43:15Z,42.805,6.029,13.3022,4.59998,2469.937,2019-11-17T07:43:43Z
2019-11-17T05:46:19Z,42.805,6.029,13.3021,4.60008,2469.89,2019-11-17T07:46:47Z
2019-11-17T05:49:22Z,42.805,6.029,13.3010,4.59995,2469.914,2019-11-17T07:49:50Z
2019-11-17T05:52:25Z,42.805,6.029,13.3024,4.59995,2469.914,2019-11-17T07:52:53Z
2019-11-17T05:55:28Z,42.805,6.029,13.3051,4.60014,2469.923,2019-11-17T07:55:56Z
2019-11-17T05:58:32Z,42.805,6.029,13.3031,4.60009,2469.89,2019-11-17T07:58:59Z
2019-11-17T06:01:35Z,42.805,6.029,13.3019,4.60016,2469.923,2019-11-17T08:02:03Z
2019-11-17T06:04:38Z,42.805,6.029,13.3030,4.60011,2469.923,2019-11-17T08:05:06Z
2019-11-17T06:07:41Z,42.805,6.029,13.3019,4.60006,2469.923,2019-11-17T08:08:09Z
2019-11-17T06:10:45Z,42.805,6.029,13.2990,4.60040,2469.96,2019-11-17T08:11:13Z
2019-11-17T06:13:48Z,42.805,6.029,13.2963,4.60028,2469.9,2019-11-17T08:14:16Z
2019-11-17T06:16:51Z,42.805,6.029,13.2963,4.60007,2469.914,2019-11-17T08:17:19Z
2019-11-17T06:19:54Z,42.805,6.029,13.2965,4.59999,2469.96,2019-11-17T08:20:22Z
2019-11-17T06:22:58Z,42.805,6.029,13.2962,4.60023,2469.937,2019-11-17T08:23:26Z
2019-11-17T06:26:01Z,42.805,6.029,13.2960,4.59986,2469.937,2019-11-17T08:26:29Z
2019-11-17T06:29:04Z,42.805,6.029,13.2959,4.59988,2469.914,2019-11-17T08:29:32Z
2019-11-17T06:32:08Z,42.805,6.029,13.2978,4.59978,2469.937,2019-11-17T08:32:36Z
2019-11-17T06:35:11Z,42.805,6.029,13.2967,4.59983,2469.96,2019-11-17T08:35:39Z
2019-11-17T06:38:14Z,42.805,6.029,13.2961,4.59988,2469.984,2019-11-17T08:38:42Z
2019-11-17T06:41:18Z,42.805,6.029,13.2963,4.59985,2469.937,2019-11-17T08:41:45Z
2019-11-17T06:44:21Z,42.805,6.029,13.2957,4.59976,2469.937,2019-11-17T08:44:49Z
2019-11-17T06:47:24Z,42.805,6.029,13.2963,4.59979,2469.96,2019-11-17T08:47:52Z
2019-11-17T06:50:27Z,42.805,6.029,13.2960,4.59983,2469.947,2019-11-17T08:50:55Z
2019-11-17T06:53:30Z,42.805,6.029,13.2958,4.59968,2469.923,2019-11-17T08:53:58Z
2019-11-17T06:56:34Z,42.805,6.029,13.2958,4.59973,2469.97,2019-11-17T08:57:01Z
2019-11-17T06:59:37Z,42.805,6.029,13.2958,4.59972,2469.97,2019-11-17T09:00:05Z
2019-11-17T07:02:40Z,42.805,6.029,13.2955,4.59981,2470.007,2019-11-17T09:03:08Z
2019-11-17T07:05:43Z,42.805,6.029,13.2960,4.59974,2469.984,2019-11-17T09:06:11Z
2019-11-17T07:08:47Z,42.805,6.029,13.2963,4.59971,2469.97,2019-11-17T09:09:15Z
2019-11-17T07:11:50Z,42.805,6.029,13.2958,4.59973,2469.97,2019-11-17T09:12:18Z
2019-11-17T07:14:53Z,42.805,6.029,13.2958,4.59970,2469.947,2019-11-17T09:15:21Z
2019-11-17T07:17:56Z,42.805,6.029,13.2959,4.59969,2469.97,2019-11-17T09:18:24Z
2019-11-17T07:21:00Z,42.805,6.029,13.2960,4.59976,2469.97,2019-11-17T09:21:28Z
2019-11-17T07:24:03Z,42.805,6.029,13.2958,4.59970,2469.993,2019-11-17T09:24:31Z
2019-11-17T07:27:06Z,42.805,6.029,13.2958,4.59968,2469.97,2019-11-17T09:27:34Z
2019-11-17T07:30:09Z,42.805,6.029,13.2960,4.59974,2469.993,2019-11-17T09:30:37Z
2019-11-17T07:33:13Z,42.805,6.029,13.2960,4.59971,2469.993,2019-11-17T09:33:40Z
2019-11-17T07:36:16Z,42.805,6.029,13.2958,4.59969,2469.993,2019-11-17T09:36:44Z
2019-11-17T07:39:19Z,42.805,6.029,13.2957,4.59967,2470.03,2019-11-17T09:39:47Z
2019-11-17T07:42:22Z,42.805,6.029,13.2959,4.59971,2469.984,2019-11-17T09:42:50Z
2019-11-17T07:45:25Z,42.805,6.029,13.2957,4.59971,2469.993,2019-11-17T09:45:53Z
2019-11-17T07:48:29Z,42.805,6.029,13.2957,4.59972,2470.007,2019-11-17T09:48:57Z
2019-11-17T07:51:32Z,42.805,6.029,13.2957,4.59964,2470.007,2019-11-17T09:52:00Z
2019-11-17T07:54:35Z,42.805,6.029,13.2959,4.59970,2470.03,2019-11-17T09:55:03Z
2019-11-17T07:57:38Z,42.805,6.029,13.2961,4.59968,2470.017,2019-11-17T09:58:06Z
2019-11-17T08:00:42Z,42.805,6.029,13.2958,4.59972,2470.03,2019-11-17T10:01:09Z
2019-11-17T08:03:45Z,42.805,6.029,13.2960,4.59964,2470.03,2019-11-17T10:04:13Z
2019-11-17T08:06:48Z,42.805,6.029,13.2953,4.59968,2470.017,2019-11-17T10:07:16Z
2019-11-17T08:09:51Z,42.805,6.029,13.2952,4.59968,2470.017,2019-11-17T10:10:19Z
2019-11-17T08:12:54Z,42.805,6.029,13.2959,4.59968,2470.063,2019-11-17T10:13:22Z
2019-11-17T08:15:58Z,42.805,6.029,13.2959,4.59968,2470.03,2019-11-17T10:16:26Z
2019-11-17T08:19:01Z,42.805,6.029,13.2958,4.59969,2470.04,2019-11-17T10:19:29Z
2019-11-17T08:22:04Z,42.805,6.029,13.2957,4.59968,2470.04,2019-11-17T10:22:32Z
2019-11-17T08:25:08Z,42.805,6.029,13.2958,4.59966,2470.063,2019-11-17T10:25:36Z
2019-11-17T08:28:11Z,42.805,6.029,13.2958,4.59971,2470.053,2019-11-17T10:28:39Z
2019-11-17T08:31:14Z,42.805,6.029,13.2963,4.59970,2470.077,2019-11-17T10:31:42Z
2019-11-17T08:34:17Z,42.805,6.029,13.2960,4.59970,2470.04,2019-11-17T10:34:45Z
2019-11-17T08:37:21Z,42.805,6.029,13.2961,4.59968,2470.063,2019-11-17T10:37:49Z
2019-11-17T08:40:24Z,42.805,6.029,13.2958,4.59964,2470.053,2019-11-17T10:40:52Z
2019-11-17T08:43:27Z,42.805,6.029,13.2961,4.59967,2470.063,2019-11-17T10:43:55Z
2019-11-17T08:46:30Z,42.805,6.029,13.2954,4.59969,2470.04,2019-11-17T10:46:58Z
2019-11-17T08:49:34Z,42.805,6.029,13.2961,4.59970,2470.077,2019-11-17T10:50:02Z
2019-11-17T08:52:37Z,42.805,6.029,13.2958,4.59966,2470.063,2019-11-17T10:53:05Z
2019-11-17T08:55:40Z,42.805,6.029,13.2957,4.59972,2470.063,2019-11-17T10:56:08Z
2019-11-17T08:58:43Z,42.805,6.029,13.2960,4.59968,2470.077,2019-11-17T10:59:11Z
2019-11-17T09:01:47Z,42.805,6.029,13.2961,4.59966,2470.049,2019-11-17T11:02:14Z
2019-11-17T09:04:50Z,42.805,6.029,13.2957,4.59969,2470.063,2019-11-17T11:05:18Z
2019-11-17T09:07:53Z,42.805,6.029,13.2958,4.59964,2470.063,2019-11-17T11:08:21Z
2019-11-17T09:10:56Z,42.805,6.029,13.2956,4.59963,2470.063,2019-11-17T11:11:24Z
2019-11-17T09:13:59Z,42.805,6.029,13.2958,4.59963,2470.096,2019-11-17T11:14:27Z
2019-11-17T09:17:03Z,42.805,6.029,13.2958,4.59963,2470.063,2019-11-17T11:17:31Z
2019-11-17T09:20:06Z,42.805,6.029,13.2961,4.59964,2470.063,2019-11-17T11:20:34Z
2019-11-17T09:23:09Z,42.805,6.029,13.2961,4.59965,2470.063,2019-11-17T11:23:37Z
2019-11-17T09:26:12Z,42.805,6.029,13.2953,4.59970,2470.04,2019-11-17T11:26:40Z
2019-11-17T09:29:16Z,42.805,6.029,13.2958,4.59965,2470.087,2019-11-17T11:29:44Z
2019-11-17T09:32:19Z,42.805,6.029,13.2960,4.59969,2470.1,2019-11-17T11:32:47Z
2019-11-17T09:35:22Z,42.805,6.029,13.2961,4.59964,2470.1,2019-11-17T11:35:50Z
2019-11-17T09:38:25Z,42.805,6.029,13.2961,4.59965,2470.063,2019-11-17T11:38:53Z
2019-11-17T09:41:29Z,42.805,6.029,13.2958,4.59965,2470.077,2019-11-17T11:41:56Z
2019-11-17T09:44:32Z,42.805,6.029,13.2963,4.59964,2470.063,2019-11-17T11:45:00Z
2019-11-17T09:47:35Z,42.805,6.029,13.2958,4.59966,2470.063,2019-11-17T11:48:03Z
2019-11-17T09:50:38Z,42.805,6.029,13.2958,4.59966,2470.063,2019-11-17T11:51:06Z
2019-11-17T09:53:41Z,42.805,6.029,13.2959,4.59971,2470.077,2019-11-17T11:54:09Z
2019-11-17T09:56:45Z,42.805,6.029,13.2961,4.59971,2470.1,2019-11-17T11:57:13Z
2019-11-17T09:59:48Z,42.805,6.029,13.2958,4.59966,2470.063,2019-11-17T12:00:16Z
2019-11-17T10:02:51Z,42.805,6.029,13.2957,4.59966,2470.11,2019-11-17T12:03:19Z
2019-11-17T10:05:55Z,42.805,6.029,13.2958,4.59966,2470.124,2019-11-17T12:06:22Z
2019-11-17T10:08:58Z,42.805,6.029,13.2957,4.59964,2470.1,2019-11-17T12:09:26Z
2019-11-17T10:12:01Z,42.805,6.029,13.2966,4.59963,2470.1,2019-11-17T12:12:29Z
2019-11-17T10:15:04Z,42.805,6.029,13.2959,4.59965,2470.11,2019-11-17T12:15:32Z
2019-11-17T10:18:08Z,42.805,6.029,13.2957,4.59968,2470.1,2019-11-17T12:18:35Z
2019-11-17T10:21:11Z,42.805,6.029,13.2959,4.59967,2470.11,2019-11-17T12:21:39Z
2019-11-17T10:24:14Z,42.805,6.029,13.2961,4.59972,2470.1,2019-11-17T12:24:42Z
2019-11-17T10:27:17Z,42.805,6.029,13.2959,4.59968,2470.087,2019-11-17T12:27:45Z
2019-11-17T10:30:21Z,42.805,6.029,13.2956,4.59964,2470.124,2019-11-17T12:30:48Z
2019-11-17T10:33:24Z,42.805,6.029,13.2962,4.59965,2470.04,2019-11-17T12:33:52Z
2019-11-17T10:36:27Z,42.805,6.029,13.2964,4.59966,2470.1,2019-11-17T12:36:55Z
2019-11-17T10:39:30Z,42.805,6.029,13.2960,4.59964,2470.1,2019-11-17T12:39:58Z
2019-11-17T10:42:34Z,42.805,6.029,13.2965,4.59964,2470.124,2019-11-17T12:43:02Z
2019-11-17T10:45:37Z,42.805,6.029,13.2958,4.59963,2470.063,2019-11-17T12:46:05Z
2019-11-17T10:48:40Z,42.805,6.029,13.2959,4.59963,2470.077,2019-11-17T12:49:08Z
2019-11-17T10:51:43Z,42.805,6.029,13.2958,4.59963,2470.087,2019-11-17T12:52:11Z
2019-11-17T10:54:47Z,42.805,6.029,13.2960,4.59963,2470.1,2019-11-17T12:55:15Z
2019-11-17T10:57:50Z,42.805,6.029,13.2959,4.59963,2470.063,2019-11-17T12:58:18Z
2019-11-17T11:00:53Z,42.805,6.029,13.2962,4.59966,2470.077,2019-11-17T13:01:21Z
2019-11-17T11:03:56Z,42.805,6.029,13.2959,4.59964,2470.04,2019-11-17T13:04:24Z
2019-11-17T11:07:00Z,42.805,6.029,13.2957,4.59968,2470.063,2019-11-17T13:07:28Z
2019-11-17T11:10:03Z,42.805,6.029,13.2961,4.59966,2470.063,2019-11-17T13:10:31Z
2019-11-17T11:13:06Z,42.805,6.029,13.2959,4.59964,2470.063,2019-11-17T13:13:34Z
2019-11-17T11:16:09Z,42.805,6.029,13.2961,4.59963,2470.087,2019-11-17T13:16:37Z
2019-11-17T11:19:13Z,42.805,6.029,13.2962,4.59964,2470.1,2019-11-17T13:19:41Z
2019-11-17T11:22:16Z,42.805,6.029,13.2961,4.59968,2470.063,2019-11-17T13:22:44Z
2019-11-17T11:25:19Z,42.805,6.029,13.2958,4.59971,2470.063,2019-11-17T13:25:47Z
2019-11-17T11:28:22Z,42.805,6.029,13.2959,4.59966,2470.063,2019-11-17T13:28:50Z
2019-11-17T11:31:26Z,42.805,6.029,13.2959,4.59964,2470.053,2019-11-17T13:31:53Z
2019-11-17T11:34:29Z,42.805,6.029,13.2961,4.59966,2470.1,2019-11-17T13:34:57Z
2019-11-17T11:37:32Z,42.805,6.029,13.2959,4.59967,2470.04,2019-11-17T13:38:00Z
2019-11-17T11:40:35Z,42.805,6.029,13.2961,4.59969,2470.063,2019-11-17T13:41:03Z
2019-11-17T11:43:38Z,42.805,6.029,13.2960,4.59966,2470.077,2019-11-17T13:44:06Z
2019-11-17T11:46:42Z,42.805,6.029,13.2962,4.59964,2470.1,2019-11-17T13:47:10Z
2019-11-17T11:49:45Z,42.805,6.029,13.2956,4.59966,2470.087,2019-11-17T13:50:13Z
2019-11-17T11:52:48Z,42.805,6.029,13.2961,4.59963,2470.04,2019-11-17T13:53:16Z
2019-11-17T11:55:51Z,42.805,6.029,13.2961,4.59964,2470.03,2019-11-17T13:56:19Z
2019-11-17T11:58:55Z,42.805,6.029,13.2958,4.59964,2470.04,2019-11-17T13:59:23Z
2019-11-17T12:01:58Z,42.805,6.029,13.2961,4.59966,2470.053,2019-11-17T14:02:26Z
2019-11-17T12:05:01Z,42.805,6.029,13.2960,4.59964,2470.053,2019-11-17T14:05:29Z
2019-11-17T12:08:05Z,42.805,6.029,13.2962,4.59964,2470.053,2019-11-17T14:08:32Z
2019-11-17T12:11:08Z,42.805,6.029,13.2957,4.59967,2470.017,2019-11-17T14:11:36Z
2019-11-17T12:14:11Z,42.805,6.029,13.2962,4.59962,2470.053,2019-11-17T14:14:39Z
2019-11-17T12:17:14Z,42.805,6.029,13.2964,4.59967,2470.053,2019-11-17T14:17:42Z
2019-11-17T12:20:18Z,42.805,6.029,13.2962,4.59966,2470.017,2019-11-17T14:20:45Z
2019-11-17T12:23:21Z,42.805,6.029,13.2961,4.59961,2470.017,2019-11-17T14:23:49Z
2019-11-17T12:26:24Z,42.805,6.029,13.2959,4.59964,2470.053,2019-11-17T14:26:52Z
2019-11-17T12:29:27Z,42.805,6.029,13.2961,4.59961,2470.053,2019-11-17T14:29:55Z
2019-11-17T12:32:31Z,42.805,6.029,13.2961,4.59961,2470.077,2019-11-17T14:32:59Z
2019-11-17T12:35:34Z,42.805,6.029,13.2961,4.59966,2470.04,2019-11-17T14:36:02Z
2019-11-17T12:38:37Z,42.805,6.029,13.2961,4.59964,2470.017,2019-11-17T14:39:05Z
2019-11-17T12:41:40Z,42.805,6.029,13.2958,4.59964,2470.017,2019-11-17T14:42:08Z
2019-11-17T12:44:44Z,42.805,6.029,13.2963,4.59961,2470.017,2019-11-17T14:45:12Z
2019-11-17T12:47:47Z,42.805,6.029,13.2965,4.59961,2470.04,2019-11-17T14:48:15Z
2019-11-17T12:50:50Z,42.805,6.029,13.2958,4.59960,2470.03,2019-11-17T14:51:18Z
2019-11-17T12:53:53Z,42.805,6.029,13.2962,4.59961,2470.053,2019-11-17T14:54:21Z
2019-11-17T12:56:57Z,42.805,6.029,13.2959,4.59961,2470.03,2019-11-17T14:57:24Z
2019-11-17T13:00:00Z,42.805,6.029,13.2960,4.59964,2469.993,2019-11-17T15:00:28Z
2019-11-17T13:03:03Z,42.805,6.029,13.2957,4.59961,2469.993,2019-11-17T15:03:31Z
2019-11-17T13:06:06Z,42.805,6.029,13.2964,4.59961,2470.03,2019-11-17T15:06:34Z
2019-11-17T13:09:10Z,42.805,6.029,13.2961,4.59962,2469.993,2019-11-17T15:09:37Z
2019-11-17T13:12:13Z,42.805,6.029,13.2958,4.59960,2469.97,2019-11-17T15:12:41Z
2019-11-17T13:15:16Z,42.805,6.029,13.2959,4.59961,2470.017,2019-11-17T15:15:44Z
2019-11-17T13:18:19Z,42.805,6.029,13.2959,4.59961,2470.017,2019-11-17T15:18:47Z
2019-11-17T13:21:22Z,42.805,6.029,13.2958,4.59963,2469.993,2019-11-17T15:21:50Z
2019-11-17T13:24:26Z,42.805,6.029,13.2961,4.59960,2470.017,2019-11-17T15:24:54Z
2019-11-17T13:27:29Z,42.805,6.029,13.2962,4.59961,2470.017,2019-11-17T15:27:57Z
2019-11-17T13:30:32Z,42.805,6.029,13.2963,4.59962,2470.03,2019-11-17T15:31:00Z
2019-11-17T13:33:35Z,42.805,6.029,13.2962,4.59961,2470.03,2019-11-17T15:34:03Z
2019-11-17T13:36:39Z,42.805,6.029,13.2959,4.59961,2470.007,2019-11-17T15:37:07Z
2019-11-17T13:39:42Z,42.805,6.029,13.2963,4.59966,2469.993,2019-11-17T15:40:10Z
2019-11-17T13:42:45Z,42.805,6.029,13.2962,4.59960,2469.97,2019-11-17T15:43:13Z
2019-11-17T13:45:48Z,42.805,6.029,13.2970,4.59959,2470.007,2019-11-17T15:46:16Z
2019-11-17T13:48:52Z,42.805,6.029,13.2961,4.59960,2469.97,2019-11-17T15:49:20Z
2019-11-17T13:51:55Z,42.805,6.029,13.2964,4.59961,2469.993,2019-11-17T15:52:23Z
2019-11-17T13:54:58Z,42.805,6.029,13.2962,4.59966,2470.007,2019-11-17T15:55:26Z
2019-11-17T13:58:01Z,42.805,6.029,13.2959,4.59964,2470.03,2019-11-17T15:58:29Z
2019-11-17T14:01:05Z,42.805,6.029,13.2963,4.59961,2469.993,2019-11-17T16:01:33Z
2019-11-17T14:04:08Z,42.805,6.029,13.2961,4.59958,2469.993,2019-11-17T16:04:36Z
2019-11-17T14:07:11Z,42.805,6.029,13.2961,4.59960,2469.97,2019-11-17T16:07:39Z
2019-11-17T14:10:14Z,42.805,6.029,13.2962,4.59962,2470.017,2019-11-17T16:10:42Z
2019-11-17T14:13:17Z,42.805,6.029,13.2964,4.59964,2469.97,2019-11-17T16:13:45Z
2019-11-17T14:16:21Z,42.805,6.029,13.2967,4.59962,2469.96,2019-11-17T16:16:49Z
2019-11-17T14:19:24Z,42.805,6.029,13.2967,4.59961,2469.97,2019-11-17T16:19:52Z
2019-11-17T14:22:27Z,42.805,6.029,13.2961,4.59961,2469.993,2019-11-17T16:22:55Z
2019-11-17T14:25:30Z,42.805,6.029,13.2961,4.59975,2470.017,2019-11-17T16:25:58Z
2019-11-17T14:28:34Z,42.805,6.029,13.2958,4.59962,2469.993,2019-11-17T16:29:02Z
2019-11-17T14:31:37Z,42.805,6.029,13.2959,4.59958,2470.017,2019-11-17T16:32:05Z
2019-11-17T14:34:40Z,42.805,6.029,13.2958,4.59958,2469.947,2019-11-17T16:35:08Z
2019-11-17T14:37:43Z,42.805,6.029,13.2962,4.59958,2469.96,2019-11-17T16:38:11Z
2019-11-17T14:40:46Z,42.805,6.029,13.2958,4.59958,2469.984,2019-11-17T16:41:14Z
2019-11-17T14:43:50Z,42.805,6.029,13.2961,4.59961,2470.007,2019-11-17T16:44:18Z
2019-11-17T14:46:53Z,42.805,6.029,13.2961,4.59957,2469.97,2019-11-17T16:47:21Z
2019-11-17T14:49:57Z,42.805,6.029,13.2959,4.59959,2470.007,2019-11-17T16:50:25Z
2019-11-17T14:53:00Z,42.805,6.029,13.2961,4.59961,2469.984,2019-11-17T16:53:28Z
2019-11-17T14:56:03Z,42.805,6.029,13.2958,4.59957,2469.984,2019-11-17T16:56:31Z
2019-11-17T14:59:06Z,42.805,6.029,13.2957,4.59959,2469.984,2019-11-17T16:59:34Z
2019-11-17T15:02:10Z,42.805,6.029,13.2961,4.59958,2469.937,2019-11-17T17:02:38Z